Regional Weather Roundup
Issued by NWS Goodland, KS

Home | Current Version | Previous Version | Graphics & Text | Print | Product List | Glossary On
Versions: 1 2 3 4 5 6 7 8 9 10 11 12 13 14 15 16 17 18 19 20 21 22 23 24 25 26 27 28 29 30 31 32 33 34 35 36 37 38 39 40 41 42 43 44 45 46 47 48 49 50
000
ASUS43 KGLD 272359
RWRGLD

GOODLAND FORECAST AREA HOURLY WEATHER ROUNDUP
NATIONAL WEATHER SERVICE GOODLAND KS
600 PM MDT FRI MAY 27 2016

...OFFICIAL OBSERVATIONS...

CITY           SKY/WX    TMP DP  RH WIND       PRES   REMARKS
GOODLAND KS    CLOUDY    55  49  80 N20G33    29.77R
HILL CITY KS   PTSUNNY   67  58  72 N9        29.68F
IMPERIAL NEB   TSTM      52  48  86 N22       29.79F FOG
MCCOOK NEB     CLOUDY    63  56  78 CALM      29.73F
AKRON CO       CLOUDY    56  45  66 NE20      29.84F
BURLINGTON CO  LGT RAIN  54  49  83 N15G26    29.82R
LIMON CO       CLOUDY    54  46  74 N16       29.88R
$$

...UNOFFICIAL OBSERVATIONS...

CITY           SKY/WX    TMP DP  RH WIND       PRES   REMARKS
GOVE KS          N/A     65  32  29 MISG        N/A
LENORA KS        N/A     63  32  31 MISG        N/A
SHARON SPRINGS   N/A     57  52  84 SW8         N/A
KIT CARSON CO    N/A     51  46  82 MISG        N/A
YUMA CO          N/A     59  49  68 NE8G18      N/A
$$




USA.gov is the U.S. government's official web portal to all federal, state and local government web resources and services.